Time,TemperatureF,DewpointF,PressureIn,WindDirection,WindDirectionDegrees,WindSpeedMPH,WindSpeedGustMPH,Humidity,HourlyPrecipIn,Conditions,Clouds,dailyrainin,SolarRadiationWatts/m^2,SoftwareType,DateUTC
2013-03-09 00:02:00,30.6,24.2,30.26,South,169,1.8,4.8,77,0.00,CLR,,0.00,0.0,WeatherDisplay:10.37,2013-03-09 06:02:00,
2013-03-09 00:07:00,30.6,24.2,30.26,South,169,0.0,0.0,77,0.00,CLR,,0.00,0.0,WeatherDisplay:10.37,2013-03-09 06:07:00,
2013-03-09 00:12:00,30.6,24.2,30.26,South,169,0.0,0.0,77,0.00,CLR,,0.00,0.0,WeatherDisplay:10.37,2013-03-09 06:12:00,
2013-03-09 00:17:00,30.6,24.2,30.26,South,173,0.0,0.0,77,0.00,CLR,,0.00,0.0,WeatherDisplay:10.37,2013-03-09 06:17:00,
2013-03-09 00:22:00,30.6,24.2,30.26,South,179,1.0,6.0,77,0.00,CLR,,0.00,0.0,WeatherDisplay:10.37,2013-03-09 06:22:00,
2013-03-09 00:27:00,30.7,24.0,30.26,South,176,1.6,4.8,76,0.00,CLR,,0.00,0.0,WeatherDisplay:10.37,2013-03-09 06:27:00,
2013-03-09 00:32:00,30.7,24.0,30.26,SSE,163,2.5,4.8,76,0.00,CLR,,0.00,0.0,WeatherDisplay:10.37,2013-03-09 06:32:00,
2013-03-09 00:37:00,30.9,24.2,30.26,South,184,0.7,3.6,76,0.00,CLR,,0.00,0.0,WeatherDisplay:10.37,2013-03-09 06:37:00,
2013-03-09 00:42:00,31.0,24.0,30.26,South,182,1.8,3.6,75,0.00,CLR,,0.00,0.0,WeatherDisplay:10.37,2013-03-09 06:42:00,
2013-03-09 00:47:00,31.2,24.2,30.25,South,182,0.7,3.5,75,0.00,CLR,,0.00,0.0,WeatherDisplay:10.37,2013-03-09 06:47:00,
2013-03-09 00:52:00,31.2,23.9,30.25,South,180,0.5,2.4,74,0.00,CLR,,0.00,0.0,WeatherDisplay:10.37,2013-03-09 06:52:00,
2013-03-09 00:57:00,31.2,23.9,30.25,South,180,0.0,0.0,74,0.00,CLR,,0.00,0.0,WeatherDisplay:10.37,2013-03-09 06:57:00,
2013-03-09 01:02:00,31.0,24.0,30.25,South,180,0.0,0.0,75,0.00,CLR,,0.00,0.0,WeatherDisplay:10.37,2013-03-09 07:02:00,
2013-03-09 01:07:00,31.0,24.0,30.25,South,179,0.4,2.4,75,0.00,CLR,,0.00,0.0,WeatherDisplay:10.37,2013-03-09 07:07:00,
2013-03-09 01:12:00,31.2,24.2,30.25,South,179,1.0,4.8,75,0.00,CLR,,0.00,0.0,WeatherDisplay:10.37,2013-03-09 07:12:00,
2013-03-09 01:17:00,31.2,24.2,30.24,South,173,0.0,0.0,75,0.00,CLR,,0.00,0.0,WeatherDisplay:10.37,2013-03-09 07:17:00,
2013-03-09 01:22:00,31.3,24.0,30.24,South,171,1.6,4.8,74,0.00,CLR,,0.00,0.0,WeatherDisplay:10.37,2013-03-09 07:22:00,
2013-03-09 01:27:00,31.5,24.2,30.24,SSE,166,0.0,0.0,74,0.00,CLR,,0.00,0.0,WeatherDisplay:10.37,2013-03-09 07:27:00,
2013-03-09 01:32:00,31.5,24.2,30.23,SSE,165,2.0,4.8,74,0.00,CLR,,0.00,0.0,WeatherDisplay:10.37,2013-03-09 07:32:00,
2013-03-09 01:37:00,31.8,24.5,30.23,South,172,4.4,6.0,74,0.00,CLR,,0.00,0.0,WeatherDisplay:10.37,2013-03-09 07:37:00,
2013-03-09 01:42:00,31.8,24.1,30.23,South,172,0.0,0.0,73,0.00,CLR,,0.00,0.0,WeatherDisplay:10.37,2013-03-09 07:42:00,
2013-03-09 01:47:00,31.5,24.2,30.23,South,172,0.0,0.0,74,0.00,CLR,,0.00,0.0,WeatherDisplay:10.37,2013-03-09 07:47:00,
2013-03-09 01:52:00,31.5,24.2,30.23,SSE,155,3.5,4.8,74,0.00,CLR,,0.00,0.0,WeatherDisplay:10.37,2013-03-09 07:52:00,
2013-03-09 01:57:00,31.5,24.2,30.23,South,171,0.5,2.4,74,0.00,CLR,,0.00,0.0,WeatherDisplay:10.37,2013-03-09 07:57:00,
2013-03-09 02:02:00,31.6,24.3,30.22,South,178,0.2,2.4,74,0.00,CLR,,0.00,0.0,WeatherDisplay:10.37,2013-03-09 08:02:00,
2013-03-09 02:07:00,31.8,24.5,30.22,South,178,0.7,4.6,74,0.00,CLR,,0.00,0.0,WeatherDisplay:10.37,2013-03-09 08:07:00,
2013-03-09 02:12:00,31.8,24.5,30.22,South,173,0.2,4.6,74,0.00,CLR,,0.00,0.0,WeatherDisplay:10.37,2013-03-09 08:12:00,
2013-03-09 02:17:00,31.9,24.6,30.20,SSE,168,3.7,6.0,74,0.00,CLR,,0.00,0.0,WeatherDisplay:10.37,2013-03-09 08:17:00,
2013-03-09 02:22:00,31.9,24.6,30.20,SSE,165,4.7,6.0,74,0.00,CLR,,0.00,0.0,WeatherDisplay:10.37,2013-03-09 08:22:00,
2013-03-09 02:27:00,31.9,24.6,30.20,South,175,5.6,7.2,74,0.00,CLR,,0.00,0.0,WeatherDisplay:10.37,2013-03-09 08:27:00,
2013-03-09 02:32:00,31.9,24.6,30.19,South,169,2.9,6.9,74,0.00,CLR,,0.00,0.0,WeatherDisplay:10.37,2013-03-09 08:32:00,
2013-03-09 02:37:00,31.9,24.6,30.19,SSE,167,3.4,6.0,74,0.00,CLR,,0.00,0.0,WeatherDisplay:10.37,2013-03-09 08:37:00,
2013-03-09 02:42:00,31.9,24.9,30.19,SSE,167,2.0,4.8,75,0.00,CLR,,0.00,0.0,WeatherDisplay:10.37,2013-03-09 08:42:00,
2013-03-09 02:47:00,31.9,24.9,30.17,SSE,159,5.8,7.2,75,0.00,CLR,,0.00,0.0,WeatherDisplay:10.37,2013-03-09 08:47:00,
2013-03-09 02:52:00,32.1,25.1,30.17,South,179,0.9,4.8,75,0.00,CLR,,0.00,0.0,WeatherDisplay:10.37,2013-03-09 08:52:00,
2013-03-09 02:57:00,32.1,25.1,30.17,South,174,2.2,4.8,75,0.00,CLR,,0.00,0.0,WeatherDisplay:10.37,2013-03-09 08:57:00,
2013-03-09 03:02:00,32.1,25.1,30.17,SSE,164,2.9,7.2,75,0.00,CLR,,0.00,0.0,WeatherDisplay:10.37,2013-03-09 09:02:00,
2013-03-09 03:07:00,32.2,25.5,30.17,SSE,158,4.2,7.2,76,0.00,CLR,,0.00,0.0,WeatherDisplay:10.37,2013-03-09 09:07:00,
2013-03-09 03:12:00,32.2,25.2,30.17,SSE,160,2.7,7.2,75,0.00,CLR,,0.00,0.0,WeatherDisplay:10.37,2013-03-09 09:12:00,
2013-03-09 03:17:00,32.2,25.5,30.17,SSE,166,5.4,6.0,76,0.00,CLR,,0.00,0.0,WeatherDisplay:10.37,2013-03-09 09:17:00,
2013-03-09 03:22:00,32.4,25.4,30.17,SSE,166,3.2,6.0,75,0.00,CLR,,0.00,0.0,WeatherDisplay:10.37,2013-03-09 09:22:00,
2013-03-09 03:27:00,32.4,25.4,30.17,SSE,150,5.2,7.2,75,0.00,CLR,,0.00,0.0,WeatherDisplay:10.37,2013-03-09 09:27:00,
2013-03-09 03:32:00,32.4,25.4,30.16,SE,138,4.5,8.4,75,0.00,CLR,,0.00,0.0,WeatherDisplay:10.37,2013-03-09 09:32:00,
2013-03-09 03:37:00,32.5,25.5,30.16,SSE,153,8.4,9.6,75,0.00,CLR,,0.00,0.0,WeatherDisplay:10.37,2013-03-09 09:37:00,
2013-03-09 03:42:00,32.5,25.5,30.16,SSE,156,3.8,8.4,75,0.00,SCT,,0.00,0.0,WeatherDisplay:10.37,2013-03-09 09:42:00,
2013-03-09 03:47:00,32.5,25.5,30.16,SSE,165,5.2,7.2,75,0.00,SCT,,0.00,0.0,WeatherDisplay:10.37,2013-03-09 09:47:00,
2013-03-09 03:52:00,32.5,25.8,30.16,SSE,155,3.3,8.4,76,0.00,SCT,,0.00,0.0,WeatherDisplay:10.37,2013-03-09 09:52:00,
2013-03-09 03:57:00,32.5,25.8,30.16,SSE,150,2.9,5.8,76,0.00,SCT,,0.00,0.0,WeatherDisplay:10.37,2013-03-09 09:57:00,
2013-03-09 04:02:00,32.5,25.8,30.16,SSE,166,0.1,2.3,76,0.00,BKN,,0.00,0.0,WeatherDisplay:10.37,2013-03-09 10:02:00,
2013-03-09 04:07:00,32.7,26.0,30.16,SSE,151,2.6,6.0,76,0.00,BKN,,0.00,0.0,WeatherDisplay:10.37,2013-03-09 10:07:00,
2013-03-09 04:12:00,32.7,26.0,30.16,SSE,162,0.0,4.6,76,0.00,BKN,,0.00,0.0,WeatherDisplay:10.37,2013-03-09 10:12:00,
2013-03-09 04:17:00,32.7,26.0,30.16,SSE,166,2.6,4.8,76,0.00,BKN,,0.00,0.0,WeatherDisplay:10.37,2013-03-09 10:17:00,
2013-03-09 04:22:00,32.7,26.0,30.16,SSE,159,0.0,0.0,76,0.00,SCT,,0.00,0.0,WeatherDisplay:10.37,2013-03-09 10:22:00,
2013-03-09 04:27:00,32.8,26.1,30.16,SSE,161,0.0,0.0,76,0.00,SCT,,0.00,0.0,WeatherDisplay:10.37,2013-03-09 10:27:00,
2013-03-09 04:32:00,32.8,26.1,30.17,SSE,161,0.0,0.0,76,0.00,SCT,,0.00,0.0,WeatherDisplay:10.37,2013-03-09 10:32:00,
2013-03-09 04:37:00,32.8,26.4,30.17,SSE,161,0.0,0.0,77,0.00,SCT,,0.00,0.0,WeatherDisplay:10.37,2013-03-09 10:37:00,
2013-03-09 04:42:00,32.8,26.1,30.17,SSE,162,0.0,0.0,76,0.00,SCT,,0.00,0.0,WeatherDisplay:10.37,2013-03-09 10:42:00,
2013-03-09 04:47:00,32.8,26.4,30.17,SSE,161,0.0,0.0,77,0.00,SCT,,0.00,0.0,WeatherDisplay:10.37,2013-03-09 10:47:00,
2013-03-09 04:52:00,32.8,26.4,30.17,SSE,162,0.0,0.0,77,0.00,SCT,,0.00,0.0,WeatherDisplay:10.37,2013-03-09 10:52:00,
2013-03-09 04:57:00,32.8,26.4,30.17,SSE,161,0.0,0.0,77,0.00,SCT,,0.00,0.0,WeatherDisplay:10.37,2013-03-09 10:57:00,
2013-03-09 05:02:00,32.8,26.4,30.17,SSE,161,0.0,0.0,77,0.00,CLR,,0.00,0.0,WeatherDisplay:10.37,2013-03-09 11:02:00,
2013-03-09 05:07:00,32.8,26.4,30.17,SSE,161,0.0,0.0,77,0.00,CLR,,0.00,0.0,WeatherDisplay:10.37,2013-03-09 11:07:00,
2013-03-09 05:12:00,32.8,26.4,30.17,SSE,161,0.0,0.0,77,0.00,CLR,,0.00,0.0,WeatherDisplay:10.37,2013-03-09 11:12:00,
2013-03-09 05:17:00,32.8,26.4,30.17,SSE,161,0.0,0.0,77,0.00,CLR,,0.00,0.0,WeatherDisplay:10.37,2013-03-09 11:17:00,
2013-03-09 05:22:00,32.8,26.4,30.17,SSE,160,0.0,1.2,77,0.00,CLR,,0.00,0.0,WeatherDisplay:10.37,2013-03-09 11:22:00,
2013-03-09 05:27:00,32.8,26.4,30.17,SSE,158,0.1,1.2,77,0.00,CLR,,0.00,0.0,WeatherDisplay:10.37,2013-03-09 11:27:00,
2013-03-09 05:32:00,32.8,26.4,30.16,SSE,155,0.0,0.0,77,0.00,CLR,,0.00,0.0,WeatherDisplay:10.37,2013-03-09 11:32:00,
2013-03-09 05:37:00,32.7,26.3,30.16,SSE,155,0.0,0.0,77,0.00,CLR,,0.00,0.0,WeatherDisplay:10.37,2013-03-09 11:37:00,
2013-03-09 05:42:00,32.5,26.1,30.16,SSE,151,0.5,2.4,77,0.00,BKN,,0.00,0.0,WeatherDisplay:10.37,2013-03-09 11:42:00,
2013-03-09 05:47:00,32.4,26.0,30.15,East,96,1.6,4.8,77,0.00,BKN,,0.00,0.0,WeatherDisplay:10.37,2013-03-09 11:47:00,
2013-03-09 05:52:00,32.4,26.0,30.15,ESE,102,0.8,6.0,77,0.00,BKN,,0.00,0.0,WeatherDisplay:10.37,2013-03-09 11:52:00,
2013-03-09 05:57:00,32.4,26.0,30.15,East,82,2.1,2.4,77,0.00,BKN,,0.00,0.0,WeatherDisplay:10.37,2013-03-09 11:57:00,
2013-03-09 06:02:00,32.4,26.0,30.14,ESE,109,3.0,6.0,77,0.00,BKN,,0.00,0.0,WeatherDisplay:10.37,2013-03-09 12:02:00,
2013-03-09 06:07:00,32.4,26.0,30.14,SE,139,0.0,0.0,77,0.00,BKN,,0.00,0.0,WeatherDisplay:10.37,2013-03-09 12:07:00,
2013-03-09 06:12:00,32.4,26.0,30.14,SSE,148,1.2,8.1,77,0.00,BKN,,0.00,0.0,WeatherDisplay:10.37,2013-03-09 12:12:00,
2013-03-09 06:17:00,32.4,26.0,30.14,SE,132,3.0,6.0,77,0.00,BKN,,0.00,0.0,WeatherDisplay:10.37,2013-03-09 12:17:00,
2013-03-09 06:22:00,32.4,26.0,30.14,ESE,102,2.6,6.9,77,0.00,BKN,,0.00,0.0,WeatherDisplay:10.37,2013-03-09 12:22:00,
2013-03-09 06:27:00,32.4,26.0,30.14,ESE,119,0.7,2.4,77,0.00,BKN,,0.00,0.0,WeatherDisplay:10.37,2013-03-09 12:27:00,
2013-03-09 06:32:00,32.4,26.0,30.15,SE,144,0.7,4.8,77,0.00,BKN,,0.00,0.0,WeatherDisplay:10.37,2013-03-09 12:32:00,
2013-03-09 06:37:00,32.4,26.3,30.15,SE,144,0.0,0.0,78,0.00,BKN,,0.00,5.0,WeatherDisplay:10.37,2013-03-09 12:37:00,
2013-03-09 06:42:00,32.4,26.3,30.15,SE,144,0.6,2.4,78,0.00,BKN,,0.00,7.0,WeatherDisplay:10.37,2013-03-09 12:42:00,
2013-03-09 06:47:00,32.4,26.3,30.15,SE,144,0.0,0.0,78,0.00,BKN,,0.00,9.0,WeatherDisplay:10.37,2013-03-09 12:47:00,
2013-03-09 06:52:00,32.4,26.3,30.15,SE,144,0.2,2.3,78,0.00,BKN,,0.00,11.0,WeatherDisplay:10.37,2013-03-09 12:52:00,
2013-03-09 06:57:00,32.5,26.4,30.15,SE,139,1.2,2.4,78,0.00,BKN,,0.00,9.0,WeatherDisplay:10.37,2013-03-09 12:57:00,
2013-03-09 07:02:00,32.7,26.6,30.14,SE,140,0.1,1.2,78,0.00,BKN,,0.00,12.0,WeatherDisplay:10.37,2013-03-09 13:02:00,
2013-03-09 07:07:00,32.8,26.7,30.14,SE,140,0.0,0.0,78,0.00,BKN,,0.00,16.0,WeatherDisplay:10.37,2013-03-09 13:07:00,
2013-03-09 07:12:00,32.9,26.8,30.14,South,183,1.9,4.6,78,0.00,SCT,,0.00,18.0,WeatherDisplay:10.37,2013-03-09 13:12:00,
2013-03-09 07:17:00,33.1,27.0,30.14,South,181,2.0,4.8,78,0.00,SCT,,0.00,12.0,WeatherDisplay:10.37,2013-03-09 13:17:00,
2013-03-09 07:22:00,33.2,27.1,30.14,South,175,0.0,0.0,78,0.00,-RA,,0.00,11.0,WeatherDisplay:10.37,2013-03-09 13:22:00,
2013-03-09 07:27:00,33.5,27.1,30.14,SSE,166,2.4,4.8,77,0.00,-RA,,0.00,26.0,WeatherDisplay:10.37,2013-03-09 13:27:00,
2013-03-09 07:32:00,33.7,27.3,30.14,SSE,163,2.7,4.8,77,0.00,-RA,,0.00,58.0,WeatherDisplay:10.37,2013-03-09 13:32:00,
2013-03-09 07:37:00,33.8,27.4,30.14,SSE,167,5.5,8.4,77,0.00,-RA,,0.00,54.0,WeatherDisplay:10.37,2013-03-09 13:37:00,
2013-03-09 07:42:00,34.1,27.6,30.14,SSE,153,5.0,6.0,77,0.00,-RA,,0.00,46.0,WeatherDisplay:10.37,2013-03-09 13:42:00,
2013-03-09 07:47:00,34.3,27.5,30.12,SSE,149,5.5,7.2,76,0.00,-RA,,0.00,47.0,WeatherDisplay:10.37,2013-03-09 13:47:00,
2013-03-09 07:52:00,34.4,27.6,30.12,SE,142,4.5,8.1,76,0.00,-RA,,0.00,56.0,WeatherDisplay:10.37,2013-03-09 13:52:00,
2013-03-09 07:57:00,34.6,27.8,30.12,SSE,165,2.8,6.0,76,0.00,-RA,,0.00,54.0,WeatherDisplay:10.37,2013-03-09 13:57:00,
2013-03-09 08:02:00,34.6,28.1,30.11,SSE,150,6.0,7.2,77,0.00,-RA,,0.00,49.0,WeatherDisplay:10.37,2013-03-09 14:02:00,
2013-03-09 08:07:00,34.6,27.8,30.11,SSE,159,2.1,7.2,76,0.00,-RA,,0.00,53.0,WeatherDisplay:10.37,2013-03-09 14:07:00,
2013-03-09 08:12:00,34.6,28.1,30.11,South,171,2.3,6.0,77,0.00,-RA,,0.00,51.0,WeatherDisplay:10.37,2013-03-09 14:12:00,
2013-03-09 08:17:00,34.6,28.4,30.09,SSE,163,7.9,10.8,78,0.00,-RA,,0.00,60.0,WeatherDisplay:10.37,2013-03-09 14:17:00,
2013-03-09 08:22:00,34.6,29.1,30.09,SSE,153,1.4,5.8,80,0.00,-RA,,0.00,79.0,WeatherDisplay:10.37,2013-03-09 14:22:00,
2013-03-09 08:27:00,34.6,29.1,30.09,South,185,5.4,6.9,80,0.00,-RA,,0.00,88.0,WeatherDisplay:10.37,2013-03-09 14:27:00,
2013-03-09 08:32:00,34.4,29.2,30.08,SSE,164,5.8,7.2,81,0.00,-RA,,0.00,79.0,WeatherDisplay:10.37,2013-03-09 14:32:00,
2013-03-09 08:37:00,34.4,29.8,30.08,SE,142,10.2,13.2,83,0.00,-RA,,0.00,88.0,WeatherDisplay:10.37,2013-03-09 14:37:00,
2013-03-09 08:42:00,34.6,30.0,30.08,SE,140,6.7,10.8,83,0.00,-RA,,0.00,95.0,WeatherDisplay:10.37,2013-03-09 14:42:00,
2013-03-09 08:47:00,34.6,30.0,30.08,SSE,163,7.2,10.8,83,0.00,-RA,,0.00,100.0,WeatherDisplay:10.37,2013-03-09 14:47:00,
2013-03-09 08:52:00,34.6,30.0,30.08,SSE,154,5.5,7.2,83,0.00,-RA,,0.00,102.0,WeatherDisplay:10.37,2013-03-09 14:52:00,
2013-03-09 08:57:00,34.7,30.1,30.08,SE,128,6.1,8.1,83,0.00,-RA,,0.00,116.0,WeatherDisplay:10.37,2013-03-09 14:57:00,
2013-03-09 09:02:00,34.9,30.3,30.07,South,180,4.1,6.0,83,0.00,BKN,,0.00,102.0,WeatherDisplay:10.37,2013-03-09 15:02:00,
2013-03-09 09:07:00,34.9,30.3,30.07,SSE,152,7.7,13.2,83,0.00,BKN,,0.00,120.0,WeatherDisplay:10.37,2013-03-09 15:07:00,
2013-03-09 09:12:00,35.0,30.4,30.07,SSE,155,9.7,12.0,83,0.00,BKN,,0.00,153.0,WeatherDisplay:10.37,2013-03-09 15:12:00,
2013-03-09 09:17:00,35.2,30.6,30.06,South,175,3.7,9.2,83,0.00,BKN,,0.00,216.0,WeatherDisplay:10.37,2013-03-09 15:17:00,
2013-03-09 09:22:00,35.5,30.5,30.06,SE,145,6.4,9.6,82,0.00,BKN,,0.00,216.0,WeatherDisplay:10.37,2013-03-09 15:22:00,
2013-03-09 09:27:00,35.6,30.6,30.06,SE,139,8.4,12.7,82,0.00,BKN,,0.00,248.0,WeatherDisplay:10.37,2013-03-09 15:27:00,
2013-03-09 09:32:00,35.9,30.9,30.04,South,175,7.2,9.6,82,0.00,BKN,,0.00,251.0,WeatherDisplay:10.37,2013-03-09 15:32:00,
2013-03-09 09:37:00,36.2,31.2,30.04,SSE,157,6.4,10.8,82,0.00,BKN,,0.00,188.0,WeatherDisplay:10.37,2013-03-09 15:37:00,
2013-03-09 09:42:00,36.0,30.7,30.04,ESE,119,9.6,15.0,81,0.00,OVC,,0.00,167.0,WeatherDisplay:10.37,2013-03-09 15:42:00,
2013-03-09 09:47:00,36.0,30.7,30.04,SSE,160,8.3,9.2,81,0.00,OVC,,0.00,146.0,WeatherDisplay:10.37,2013-03-09 15:47:00,
2013-03-09 09:52:00,36.2,30.9,30.04,SSE,166,9.6,12.0,81,0.00,OVC,,0.00,116.0,WeatherDisplay:10.37,2013-03-09 15:52:00,
2013-03-09 09:57:00,36.2,31.2,30.04,SSE,160,10.6,15.6,82,0.00,OVC,,0.00,141.0,WeatherDisplay:10.37,2013-03-09 15:57:00,
2013-03-09 10:02:00,36.3,31.3,30.04,SSE,161,10.1,15.0,82,0.00,OVC,,0.00,174.0,WeatherDisplay:10.37,2013-03-09 16:02:00,
2013-03-09 10:07:00,36.6,31.3,30.04,SE,146,8.0,16.1,81,0.00,OVC,,0.00,171.0,WeatherDisplay:10.37,2013-03-09 16:07:00,
2013-03-09 10:12:00,36.8,31.5,30.04,South,175,9.9,15.0,81,0.00,BKN,,0.00,199.0,WeatherDisplay:10.37,2013-03-09 16:12:00,
2013-03-09 10:17:00,36.9,31.6,30.03,SSE,153,10.5,12.0,81,0.00,BKN,,0.00,207.0,WeatherDisplay:10.37,2013-03-09 16:17:00,
2013-03-09 10:22:00,37.0,31.7,30.03,South,171,7.4,8.4,81,0.00,BKN,,0.00,211.0,WeatherDisplay:10.37,2013-03-09 16:22:00,
2013-03-09 10:27:00,37.2,31.6,30.03,SE,145,6.2,10.4,80,0.00,BKN,,0.00,211.0,WeatherDisplay:10.37,2013-03-09 16:27:00,
2013-03-09 10:32:00,37.2,31.6,30.02,SSE,157,12.9,16.8,80,0.00,BKN,,0.00,218.0,WeatherDisplay:10.37,2013-03-09 16:32:00,
2013-03-09 10:37:00,37.5,31.9,30.02,SE,146,9.2,12.0,80,0.00,BKN,,0.00,206.0,WeatherDisplay:10.37,2013-03-09 16:37:00,
2013-03-09 10:42:00,37.5,31.9,30.02,South,180,4.1,9.2,80,0.00,OVC,,0.00,211.0,WeatherDisplay:10.37,2013-03-09 16:42:00,
2013-03-09 10:47:00,37.6,32.0,30.02,SSE,163,7.2,11.5,80,0.00,OVC,,0.00,193.0,WeatherDisplay:10.37,2013-03-09 16:47:00,
2013-03-09 10:52:00,37.6,31.7,30.02,SSE,155,8.9,10.8,79,0.00,OVC,,0.00,204.0,WeatherDisplay:10.37,2013-03-09 16:52:00,
2013-03-09 10:57:00,37.8,31.9,30.02,South,187,8.4,10.8,79,0.00,OVC,,0.00,221.0,WeatherDisplay:10.37,2013-03-09 16:57:00,
2013-03-09 11:02:00,37.9,32.0,30.00,SSE,151,8.9,12.0,79,0.00,BKN,,0.00,216.0,WeatherDisplay:10.37,2013-03-09 17:02:00,
2013-03-09 11:07:00,38.0,31.7,30.00,SE,146,9.5,13.2,78,0.00,BKN,,0.00,220.0,WeatherDisplay:10.37,2013-03-09 17:07:00,
2013-03-09 11:12:00,38.2,31.6,30.00,South,177,8.2,9.6,77,0.00,BKN,,0.00,237.0,WeatherDisplay:10.37,2013-03-09 17:12:00,
2013-03-09 11:17:00,38.3,31.7,30.00,SSE,150,9.7,12.0,77,0.00,BKN,,0.00,269.0,WeatherDisplay:10.37,2013-03-09 17:17:00,
2013-03-09 11:22:00,38.5,31.9,30.00,SSE,165,9.3,12.0,77,0.00,SCT,,0.00,243.0,WeatherDisplay:10.37,2013-03-09 17:22:00,
2013-03-09 11:27:00,38.6,31.7,30.00,SSE,167,6.8,8.4,76,0.00,SCT,,0.00,234.0,WeatherDisplay:10.37,2013-03-09 17:27:00,
2013-03-09 11:32:00,38.8,31.9,29.99,SSE,158,5.1,8.1,76,0.00,SCT,,0.00,214.0,WeatherDisplay:10.37,2013-03-09 17:32:00,
2013-03-09 11:37:00,38.9,31.6,29.99,SSE,166,8.0,10.8,75,0.00,SCT,,0.00,193.0,WeatherDisplay:10.37,2013-03-09 17:37:00,
2013-03-09 11:42:00,39.1,31.8,29.99,South,179,9.7,10.8,75,0.00,BKN,,0.00,171.0,WeatherDisplay:10.37,2013-03-09 17:42:00,
2013-03-09 11:47:00,39.1,31.8,29.99,SE,127,9.1,10.8,75,0.00,BKN,,0.00,144.0,WeatherDisplay:10.37,2013-03-09 17:47:00,
2013-03-09 11:52:00,39.1,31.8,29.99,SE,143,10.2,15.6,75,0.00,BKN,,0.00,134.0,WeatherDisplay:10.37,2013-03-09 17:52:00,
2013-03-09 11:57:00,39.2,31.9,29.99,South,170,8.1,9.6,75,0.00,BKN,,0.00,151.0,WeatherDisplay:10.37,2013-03-09 17:57:00,
2013-03-09 12:02:00,39.2,31.9,29.97,South,169,7.9,13.2,75,0.00,SCT,,0.00,179.0,WeatherDisplay:10.37,2013-03-09 18:02:00,
2013-03-09 12:07:00,39.3,31.7,29.97,SSE,159,7.2,12.7,74,0.00,SCT,,0.00,179.0,WeatherDisplay:10.37,2013-03-09 18:07:00,
2013-03-09 12:12:00,39.3,31.7,29.97,South,173,4.6,7.2,74,0.00,SCT,,0.00,171.0,WeatherDisplay:10.37,2013-03-09 18:12:00,
2013-03-09 12:17:00,39.5,31.9,29.97,SSE,159,8.6,10.8,74,0.00,SCT,,0.00,197.0,WeatherDisplay:10.37,2013-03-09 18:17:00,
2013-03-09 12:22:00,39.6,32.3,29.97,SSE,161,9.8,12.0,75,0.00,SCT,,0.00,207.0,WeatherDisplay:10.37,2013-03-09 18:22:00,
2013-03-09 12:27:00,39.6,32.0,29.97,SSE,163,10.0,12.0,74,0.00,SCT,,0.00,172.0,WeatherDisplay:10.37,2013-03-09 18:27:00,
2013-03-09 12:32:00,39.8,32.2,29.95,SSE,154,11.8,15.0,74,0.00,SCT,,0.00,218.0,WeatherDisplay:10.37,2013-03-09 18:32:00,
2013-03-09 12:37:00,39.8,32.2,29.95,SSE,166,5.9,10.4,74,0.00,SCT,,0.00,206.0,WeatherDisplay:10.37,2013-03-09 18:37:00,
2013-03-09 12:42:00,39.8,32.2,29.95,South,173,9.2,12.7,74,0.00,SCT,,0.00,139.0,WeatherDisplay:10.37,2013-03-09 18:42:00,
2013-03-09 12:47:00,39.9,32.3,29.93,SSE,150,11.1,16.1,74,0.00,SCT,,0.00,144.0,WeatherDisplay:10.37,2013-03-09 18:47:00,
2013-03-09 12:52:00,40.1,32.5,29.93,South,189,9.5,10.8,74,0.00,SCT,,0.00,100.0,WeatherDisplay:10.37,2013-03-09 18:52:00,
2013-03-09 12:57:00,40.1,32.5,29.93,SSW,196,14.2,22.8,74,0.00,SCT,,0.00,100.0,WeatherDisplay:10.37,2013-03-09 18:57:00,
2013-03-09 13:02:00,40.1,32.8,29.93,South,188,10.0,15.0,75,0.00,SCT,,0.00,120.0,WeatherDisplay:10.37,2013-03-09 19:02:00,
2013-03-09 13:07:00,40.1,32.8,29.93,SSE,165,12.8,19.2,75,0.00,SCT,,0.00,144.0,WeatherDisplay:10.37,2013-03-09 19:07:00,
2013-03-09 13:12:00,40.2,32.9,29.93,SSE,160,10.8,15.0,75,0.00,BKN,,0.00,179.0,WeatherDisplay:10.37,2013-03-09 19:12:00,
2013-03-09 13:17:00,40.3,33.0,29.91,South,186,10.0,16.1,75,0.00,BKN,,0.00,148.0,WeatherDisplay:10.37,2013-03-09 19:17:00,
2013-03-09 13:22:00,40.3,33.0,29.91,South,170,10.1,11.5,75,0.00,OVC,,0.00,102.0,WeatherDisplay:10.37,2013-03-09 19:22:00,
2013-03-09 13:27:00,40.3,33.0,29.91,SSE,167,8.7,12.7,75,0.00,OVC,,0.00,113.0,WeatherDisplay:10.37,2013-03-09 19:27:00,
2013-03-09 13:32:00,40.3,33.0,29.92,SSE,153,8.4,10.4,75,0.00,OVC,,0.00,93.0,WeatherDisplay:10.37,2013-03-09 19:32:00,
2013-03-09 13:37:00,40.3,33.3,29.92,South,174,16.6,23.0,76,0.00,OVC,,0.00,79.0,WeatherDisplay:10.37,2013-03-09 19:37:00,
2013-03-09 13:43:00,40.2,33.2,29.92,South,183,8.3,10.8,76,0.00,OVC,,0.00,72.0,WeatherDisplay:10.37,2013-03-09 19:43:00,
2013-03-09 13:48:00,40.1,33.5,29.91,South,171,7.8,9.6,77,0.00,OVC,,0.00,67.0,WeatherDisplay:10.37,2013-03-09 19:48:00,
2013-03-09 13:53:00,39.9,33.3,29.91,SE,140,9.8,12.0,77,0.00,OVC,,0.00,58.0,WeatherDisplay:10.37,2013-03-09 19:53:00,
2013-03-09 13:58:00,40.1,33.5,29.91,SSE,167,11.6,15.0,77,0.00,OVC,,0.00,62.0,WeatherDisplay:10.37,2013-03-09 19:58:00,
2013-03-09 14:03:00,40.1,33.5,29.89,SSE,155,10.0,12.7,77,0.00,OVC,,0.00,60.0,WeatherDisplay:10.37,2013-03-09 20:03:00,
2013-03-09 14:08:00,39.9,33.3,29.89,South,173,4.6,8.4,77,0.00,OVC,,0.00,51.0,WeatherDisplay:10.37,2013-03-09 20:08:00,
2013-03-09 14:13:00,39.8,33.5,29.89,South,175,6.6,8.4,78,0.00,OVC,,0.00,42.0,WeatherDisplay:10.37,2013-03-09 20:13:00,
2013-03-09 14:18:00,39.6,33.3,29.89,South,171,9.6,13.2,78,0.00,OVC,,0.00,44.0,WeatherDisplay:10.37,2013-03-09 20:18:00,
2013-03-09 14:23:00,39.5,33.5,29.89,SSE,155,7.4,9.6,79,0.00,OVC,,0.00,40.0,WeatherDisplay:10.37,2013-03-09 20:23:00,
2013-03-09 14:28:00,39.5,33.8,29.89,SSE,156,8.9,10.8,80,0.00,OVC,,0.00,40.0,WeatherDisplay:10.37,2013-03-09 20:28:00,
2013-03-09 14:33:00,39.5,33.8,29.89,SSE,159,9.2,10.8,80,0.00,OVC,,0.00,39.0,WeatherDisplay:10.37,2013-03-09 20:33:00,
2013-03-09 14:38:00,39.3,34.3,29.89,SSE,151,10.7,15.0,82,0.00,OVC,,0.00,40.0,WeatherDisplay:10.37,2013-03-09 20:38:00,
2013-03-09 14:43:00,39.2,34.5,29.89,South,185,10.4,15.0,83,0.00,OVC,,0.00,37.0,WeatherDisplay:10.37,2013-03-09 20:43:00,
2013-03-09 14:48:00,39.1,34.7,29.88,South,169,8.5,9.6,84,0.00,OVC,,0.00,37.0,WeatherDisplay:10.37,2013-03-09 20:48:00,
2013-03-09 14:53:00,38.8,34.7,29.88,SSE,165,9.7,12.0,85,0.01,RA,,0.01,37.0,WeatherDisplay:10.37,2013-03-09 20:53:00,
2013-03-09 14:58:00,38.6,35.1,29.88,SSE,161,8.4,10.8,87,0.01,RA,,0.01,35.0,WeatherDisplay:10.37,2013-03-09 20:58:00,
2013-03-09 15:03:00,38.3,34.8,29.89,SSE,162,8.9,12.0,87,0.01,-RA,,0.01,33.0,WeatherDisplay:10.37,2013-03-09 21:03:00,
2013-03-09 15:08:00,38.0,34.8,29.89,South,174,7.2,8.4,88,0.02,-RA,,0.02,32.0,WeatherDisplay:10.37,2013-03-09 21:08:00,
2013-03-09 15:13:00,37.8,34.8,29.89,SSE,159,6.1,6.1,89,0.02,-RA,,0.02,35.0,WeatherDisplay:10.37,2013-03-09 21:13:00,
2013-03-09 15:18:00,37.6,34.7,29.88,SSE,167,4.1,7.2,89,0.02,-RA,,0.03,39.0,WeatherDisplay:10.37,2013-03-09 21:18:00,
2013-03-09 15:23:00,37.5,34.8,29.88,ESE,123,3.7,6.0,90,0.03,-RA,,0.03,33.0,WeatherDisplay:10.37,2013-03-09 21:23:00,
2013-03-09 15:28:00,37.5,35.1,29.88,SSE,153,2.1,6.0,91,0.05,-RA,,0.06,33.0,WeatherDisplay:10.37,2013-03-09 21:28:00,
2013-03-09 15:33:00,37.3,34.9,29.86,SSE,157,0.2,1.2,91,0.07,-RA,,0.07,30.0,WeatherDisplay:10.37,2013-03-09 21:33:00,
2013-03-09 15:38:00,37.2,34.8,29.86,SSE,148,6.0,7.2,91,0.08,-RA,,0.08,30.0,WeatherDisplay:10.37,2013-03-09 21:38:00,
2013-03-09 15:43:00,37.2,35.1,29.86,SSE,161,0.0,1.2,92,0.09,-RA,,0.09,30.0,WeatherDisplay:10.37,2013-03-09 21:43:00,
2013-03-09 15:48:00,37.0,34.9,29.86,SSE,159,4.8,6.0,92,0.12,-RA,,0.12,28.0,WeatherDisplay:10.37,2013-03-09 21:48:00,
2013-03-09 15:53:00,37.0,35.2,29.86,SSE,153,0.0,4.6,93,0.10,-RA,,0.12,28.0,WeatherDisplay:10.37,2013-03-09 21:53:00,
2013-03-09 15:58:00,36.9,35.1,29.86,SE,137,1.2,6.0,93,0.12,-RA,,0.13,30.0,WeatherDisplay:10.37,2013-03-09 21:58:00,
2013-03-09 16:03:00,36.9,35.1,29.85,SSE,167,1.0,4.8,93,0.13,-RA,,0.14,25.0,WeatherDisplay:10.37,2013-03-09 22:03:00,
2013-03-09 16:08:00,36.9,35.1,29.85,SE,146,1.7,4.8,93,0.12,-RA,,0.14,25.0,WeatherDisplay:10.37,2013-03-09 22:08:00,
2013-03-09 16:13:00,36.8,35.2,29.85,SSE,151,0.4,4.8,94,0.13,-RA,,0.15,23.0,WeatherDisplay:10.37,2013-03-09 22:13:00,
2013-03-09 16:18:00,36.8,35.2,29.84,SSE,150,2.0,4.8,94,0.12,-RA,,0.15,33.0,WeatherDisplay:10.37,2013-03-09 22:18:00,
2013-03-09 16:23:00,36.8,35.2,29.84,SSE,166,5.4,7.2,94,0.12,OVC,,0.15,37.0,WeatherDisplay:10.37,2013-03-09 22:23:00,
2013-03-09 16:28:00,36.6,35.0,29.84,SSE,162,3.4,6.0,94,0.12,RA,,0.16,25.0,WeatherDisplay:10.37,2013-03-09 22:28:00,
2013-03-09 16:33:00,36.6,35.0,29.84,SSE,157,2.8,4.8,94,0.09,RA,,0.16,21.0,WeatherDisplay:10.37,2013-03-09 22:33:00,
2013-03-09 16:38:00,36.5,34.9,29.84,SSE,166,2.9,5.8,94,0.08,OVC,,0.16,16.0,WeatherDisplay:10.37,2013-03-09 22:38:00,
2013-03-09 16:43:00,36.5,34.9,29.84,SSE,168,1.6,4.8,94,0.07,-RA,,0.16,14.0,WeatherDisplay:10.37,2013-03-09 22:43:00,
2013-03-09 16:48:00,36.5,35.2,29.84,SE,142,5.2,7.2,95,0.05,-RA,,0.16,14.0,WeatherDisplay:10.37,2013-03-09 22:48:00,
2013-03-09 16:53:00,36.5,35.2,29.84,SSE,160,1.7,6.0,95,0.05,-RA,,0.16,14.0,WeatherDisplay:10.37,2013-03-09 22:53:00,
2013-03-09 16:58:00,36.5,35.2,29.84,SSE,161,5.5,9.6,95,0.03,-RA,,0.16,14.0,WeatherDisplay:10.37,2013-03-09 22:58:00,
2013-03-09 17:03:00,36.5,35.2,29.83,South,175,4.5,7.2,95,0.02,-RA,,0.16,12.0,WeatherDisplay:10.37,2013-03-09 23:03:00,
2013-03-09 17:08:00,36.5,35.2,29.83,SSE,159,6.1,8.1,95,0.02,-RA,,0.16,12.0,WeatherDisplay:10.37,2013-03-09 23:08:00,
2013-03-09 17:13:00,36.5,35.2,29.83,SSE,162,4.7,6.0,95,0.01,-RA,,0.16,11.0,WeatherDisplay:10.37,2013-03-09 23:13:00,
2013-03-09 17:18:00,36.5,35.2,29.83,South,176,7.9,9.6,95,0.02,-RA,,0.17,9.0,WeatherDisplay:10.37,2013-03-09 23:18:00,
2013-03-09 17:23:00,36.3,35.0,29.83,SSE,167,2.8,6.9,95,0.02,-RA,,0.17,9.0,WeatherDisplay:10.37,2013-03-09 23:23:00,
2013-03-09 17:28:00,36.3,35.0,29.83,South,180,4.9,7.2,95,0.01,-RA,,0.17,7.0,WeatherDisplay:10.37,2013-03-09 23:28:00,
2013-03-09 17:33:00,36.3,35.0,29.83,South,173,4.1,6.0,95,0.01,-RA,,0.17,5.0,WeatherDisplay:10.37,2013-03-09 23:33:00,
2013-03-09 17:38:00,36.3,35.0,29.83,SSE,163,6.2,8.4,95,0.01,-RA,,0.17,0.0,WeatherDisplay:10.37,2013-03-09 23:38:00,
2013-03-09 17:43:00,36.3,35.0,29.83,South,174,3.1,6.9,95,0.02,-RA,,0.19,0.0,WeatherDisplay:10.37,2013-03-09 23:43:00,
2013-03-09 17:48:00,36.3,35.3,29.83,SE,146,4.3,6.0,96,0.02,-RA,,0.19,0.0,WeatherDisplay:10.37,2013-03-09 23:48:00,
2013-03-09 17:53:00,36.3,35.3,29.83,SSE,159,4.7,6.9,96,0.03,-RA,,0.20,0.0,WeatherDisplay:10.37,2013-03-09 23:53:00,
2013-03-09 17:58:00,36.3,35.3,29.83,SE,142,3.8,6.0,96,0.05,-RA,,0.21,0.0,WeatherDisplay:10.37,2013-03-09 23:58:00,
2013-03-09 18:03:00,36.5,35.5,29.83,South,170,4.8,7.2,96,0.06,-RA,,0.22,0.0,WeatherDisplay:10.37,2013-03-10 00:03:00,
2013-03-09 18:08:00,36.5,35.5,29.83,South,170,5.1,7.2,96,0.07,-RA,,0.23,0.0,WeatherDisplay:10.37,2013-03-10 00:08:00,
2013-03-09 18:13:00,36.5,35.5,29.83,SSE,155,5.9,8.4,96,0.07,-RA,,0.23,0.0,WeatherDisplay:10.37,2013-03-10 00:13:00,
2013-03-09 18:18:00,36.5,35.5,29.84,SSE,163,5.3,7.2,96,0.06,-RA,,0.23,0.0,WeatherDisplay:10.37,2013-03-10 00:18:00,
2013-03-09 18:23:00,36.5,35.5,29.84,South,174,4.6,7.2,96,0.07,-RA,,0.24,0.0,WeatherDisplay:10.37,2013-03-10 00:23:00,
2013-03-09 18:28:00,36.5,35.5,29.84,SSE,162,3.6,5.8,96,0.07,-RA,,0.24,0.0,WeatherDisplay:10.37,2013-03-10 00:28:00,
2013-03-09 18:33:00,36.6,35.6,29.83,South,171,1.0,6.9,96,0.07,-RA,,0.24,0.0,WeatherDisplay:10.37,2013-03-10 00:33:00,
2013-03-09 18:38:00,36.6,35.6,29.83,South,169,2.8,4.8,96,0.08,-RA,,0.26,0.0,WeatherDisplay:10.37,2013-03-10 00:38:00,
2013-03-09 18:43:00,36.6,35.6,29.83,South,173,3.7,7.2,96,0.07,-RA,,0.26,0.0,WeatherDisplay:10.37,2013-03-10 00:43:00,
2013-03-09 18:48:00,36.8,35.8,29.83,SSE,163,5.4,6.0,96,0.07,-RA,,0.26,0.0,WeatherDisplay:10.37,2013-03-10 00:48:00,
2013-03-09 18:53:00,36.8,35.8,29.83,SSE,159,3.7,6.0,96,0.06,-RA,,0.26,0.0,WeatherDisplay:10.37,2013-03-10 00:53:00,
2013-03-09 18:58:00,36.8,35.8,29.83,SSE,160,4.8,7.2,96,0.05,-RA,,0.26,0.0,WeatherDisplay:10.37,2013-03-10 00:58:00,
2013-03-09 19:03:00,36.8,35.8,29.83,SSE,165,3.1,6.0,96,0.03,OVC,,0.26,0.0,WeatherDisplay:10.37,2013-03-10 01:03:00,
2013-03-09 19:08:00,36.8,35.8,29.83,SSE,151,2.5,6.0,96,0.03,OVC,,0.26,0.0,WeatherDisplay:10.37,2013-03-10 01:08:00,
2013-03-09 19:13:00,36.9,36.1,29.83,SSE,167,4.6,6.0,97,0.03,RA,,0.27,0.0,WeatherDisplay:10.37,2013-03-10 01:13:00,
2013-03-09 19:18:00,36.9,36.1,29.83,SSE,165,4.5,8.4,97,0.03,RA,,0.27,0.0,WeatherDisplay:10.37,2013-03-10 01:18:00,
2013-03-09 19:23:00,36.9,36.1,29.83,SSE,161,4.6,7.2,97,0.02,-RA,,0.27,0.0,WeatherDisplay:10.37,2013-03-10 01:23:00,
2013-03-09 19:28:00,36.9,36.1,29.83,SSE,166,4.0,6.0,97,0.02,-RA,,0.27,0.0,WeatherDisplay:10.37,2013-03-10 01:28:00,
2013-03-09 19:33:00,37.0,36.2,29.83,SSE,161,4.5,6.0,97,0.02,-RA,,0.27,0.0,WeatherDisplay:10.37,2013-03-10 01:33:00,
2013-03-09 19:38:00,37.0,36.2,29.83,South,171,4.7,7.2,97,0.01,-RA,,0.27,0.0,WeatherDisplay:10.37,2013-03-10 01:38:00,
2013-03-09 19:43:00,37.2,36.4,29.83,South,181,5.4,7.2,97,0.01,OVC,,0.27,0.0,WeatherDisplay:10.37,2013-03-10 01:43:00,
2013-03-09 19:48:00,37.2,36.4,29.83,SSE,157,4.7,8.4,97,0.01,OVC,,0.27,0.0,WeatherDisplay:10.37,2013-03-10 01:48:00,
2013-03-09 19:53:00,37.3,36.5,29.83,South,171,5.3,7.2,97,0.02,RA,,0.28,0.0,WeatherDisplay:10.37,2013-03-10 01:53:00,
2013-03-09 19:58:00,37.5,36.7,29.83,South,179,4.5,6.9,97,0.02,RA,,0.28,0.0,WeatherDisplay:10.37,2013-03-10 01:58:00,
2013-03-09 20:03:00,37.5,36.7,29.82,SSE,166,11.0,15.0,97,0.02,-DZ,,0.28,0.0,WeatherDisplay:10.37,2013-03-10 02:03:00,
2013-03-09 20:08:00,37.6,36.8,29.82,SSE,166,9.6,13.2,97,0.02,-DZ,,0.28,0.0,WeatherDisplay:10.37,2013-03-10 02:08:00,
2013-03-09 20:13:00,37.6,36.8,29.82,South,170,8.4,10.4,97,0.01,-DZ,,0.28,0.0,WeatherDisplay:10.37,2013-03-10 02:13:00,
2013-03-09 20:18:00,37.8,37.0,29.83,SSE,153,7.5,9.6,97,0.01,-DZ,,0.28,0.0,WeatherDisplay:10.37,2013-03-10 02:18:00,
2013-03-09 20:23:00,37.8,37.0,29.83,South,175,7.3,10.4,97,0.01,-RA,,0.28,0.0,WeatherDisplay:10.37,2013-03-10 02:23:00,
2013-03-09 20:28:00,37.8,37.0,29.83,SSE,168,7.9,10.8,97,0.01,-RA,,0.28,0.0,WeatherDisplay:10.37,2013-03-10 02:28:00,
2013-03-09 20:33:00,37.6,36.8,29.83,South,171,6.2,8.1,97,0.01,-RA,,0.28,0.0,WeatherDisplay:10.37,2013-03-10 02:33:00,
2013-03-09 20:38:00,37.6,36.8,29.83,South,190,6.7,8.4,97,0.01,-RA,,0.28,0.0,WeatherDisplay:10.37,2013-03-10 02:38:00,
2013-03-09 20:43:00,37.6,36.8,29.83,South,187,6.1,10.8,97,0.01,OVC,,0.28,0.0,WeatherDisplay:10.37,2013-03-10 02:43:00,
2013-03-09 20:48:00,37.6,36.8,29.83,South,174,4.8,9.2,97,0.01,OVC,,0.28,0.0,WeatherDisplay:10.37,2013-03-10 02:48:00,
2013-03-09 20:53:00,37.6,36.8,29.83,South,170,6.8,8.1,97,0.00,OVC,,0.28,0.0,WeatherDisplay:10.37,2013-03-10 02:53:00,
2013-03-09 20:58:00,37.6,36.8,29.83,SSE,159,1.8,4.8,97,0.00,OVC,,0.28,0.0,WeatherDisplay:10.37,2013-03-10 02:58:00,
2013-03-09 21:03:00,37.5,36.7,29.82,SSE,160,4.3,7.2,97,0.01,RA,,0.29,0.0,WeatherDisplay:10.37,2013-03-10 03:03:00,
2013-03-09 21:08:00,37.5,36.7,29.82,SE,141,6.5,9.6,97,0.01,RA,,0.29,0.0,WeatherDisplay:10.37,2013-03-10 03:08:00,
2013-03-09 21:13:00,37.5,36.7,29.82,SSE,156,0.0,2.3,97,0.01,-DZ,,0.29,0.0,WeatherDisplay:10.37,2013-03-10 03:13:00,
2013-03-09 21:18:00,37.5,36.7,29.81,SSE,156,2.9,4.8,97,0.01,-DZ,,0.29,0.0,WeatherDisplay:10.37,2013-03-10 03:18:00,
2013-03-09 21:23:00,37.3,36.5,29.81,SSE,156,0.0,1.2,97,0.01,OVC,,0.29,0.0,WeatherDisplay:10.37,2013-03-10 03:23:00,
2013-03-09 21:28:00,37.2,36.4,29.81,SSE,156,0.2,2.4,97,0.01,OVC,,0.29,0.0,WeatherDisplay:10.37,2013-03-10 03:28:00,
2013-03-09 21:33:00,37.2,36.4,29.81,SSE,156,0.0,0.0,97,0.02,RA,,0.30,0.0,WeatherDisplay:10.37,2013-03-10 03:33:00,
2013-03-09 21:38:00,37.0,36.2,29.81,SSE,156,0.6,2.4,97,0.02,RA,,0.30,0.0,WeatherDisplay:10.37,2013-03-10 03:38:00,
2013-03-09 21:43:00,37.0,36.2,29.81,SSE,156,0.0,1.2,97,0.02,OVC,,0.30,0.0,WeatherDisplay:10.37,2013-03-10 03:43:00,
2013-03-09 21:48:00,37.2,36.4,29.81,SSE,156,1.5,4.8,97,0.02,OVC,,0.30,0.0,WeatherDisplay:10.37,2013-03-10 03:48:00,
2013-03-09 21:53:00,37.3,36.5,29.81,SSE,156,3.1,6.0,97,0.02,OVC,,0.30,0.0,WeatherDisplay:10.37,2013-03-10 03:53:00,
2013-03-09 21:58:00,37.3,36.5,29.81,South,174,3.8,6.0,97,0.02,OVC,,0.30,0.0,WeatherDisplay:10.37,2013-03-10 03:58:00,
2013-03-09 22:03:00,37.5,36.7,29.81,SSE,159,5.4,6.0,97,0.01,OVC,,0.30,0.0,WeatherDisplay:10.37,2013-03-10 04:03:00,
2013-03-09 22:08:00,37.6,36.8,29.81,SSE,165,3.2,6.0,97,0.01,OVC,,0.30,0.0,WeatherDisplay:10.37,2013-03-10 04:08:00,
2013-03-09 22:13:00,37.6,36.8,29.81,SSE,159,2.0,4.8,97,0.01,OVC,,0.30,0.0,WeatherDisplay:10.37,2013-03-10 04:13:00,
2013-03-09 22:18:00,37.6,36.8,29.81,South,172,2.4,5.8,97,0.01,OVC,,0.30,0.0,WeatherDisplay:10.37,2013-03-10 04:18:00,
2013-03-09 22:23:00,37.8,37.0,29.81,SSE,167,0.0,0.0,97,0.01,OVC,,0.30,0.0,WeatherDisplay:10.37,2013-03-10 04:23:00,
2013-03-09 22:28:00,37.8,37.0,29.81,South,172,1.9,4.8,97,0.01,OVC,,0.30,0.0,WeatherDisplay:10.37,2013-03-10 04:28:00,
2013-03-09 22:33:00,37.9,37.1,29.81,South,170,4.4,6.0,97,0.00,OVC,,0.30,0.0,WeatherDisplay:10.37,2013-03-10 04:33:00,
2013-03-09 22:38:00,37.9,37.1,29.81,South,170,0.0,1.2,97,0.00,OVC,,0.30,0.0,WeatherDisplay:10.37,2013-03-10 04:38:00,
2013-03-09 22:43:00,37.9,37.1,29.81,South,170,0.0,0.0,97,0.00,-DZ,,0.30,0.0,WeatherDisplay:10.37,2013-03-10 04:43:00,
2013-03-09 22:48:00,37.9,37.1,29.81,South,170,0.0,0.0,97,0.00,-DZ,,0.30,0.0,WeatherDisplay:10.37,2013-03-10 04:48:00,
2013-03-09 22:53:00,37.9,37.1,29.81,South,170,0.0,0.0,97,0.00,-DZ,,0.30,0.0,WeatherDisplay:10.37,2013-03-10 04:53:00,
2013-03-09 22:58:00,37.9,37.1,29.81,South,170,0.0,0.0,97,0.00,-DZ,,0.30,0.0,WeatherDisplay:10.37,2013-03-10 04:58:00,
2013-03-09 23:00:00,37.8,37.0,29.80,South,170,0.0,0.0,97,0.00,-DZ,,0.30,0.0,WeatherDisplay:10.37,2013-03-10 05:00:00,
2013-03-09 23:01:00,37.8,37.0,29.80,South,170,0.0,0.0,97,0.00,OVC,,0.30,0.0,WeatherDisplay:10.37,2013-03-10 05:01:00,
2013-03-09 23:02:00,37.8,37.0,29.80,South,170,0.0,0.0,97,0.00,OVC,,0.30,0.0,WeatherDisplay:10.37,2013-03-10 05:02:00,
2013-03-09 23:07:00,37.6,36.8,29.80,South,170,0.0,0.0,97,0.00,OVC,,0.30,0.0,WeatherDisplay:10.37,2013-03-10 05:07:00,
2013-03-09 23:12:00,37.6,36.8,29.80,South,170,0.0,0.0,97,0.00,OVC,,0.30,0.0,WeatherDisplay:10.37,2013-03-10 05:12:00,
2013-03-09 23:17:00,37.5,36.7,29.80,South,170,0.0,0.0,97,0.00,OVC,,0.30,0.0,WeatherDisplay:10.37,2013-03-10 05:17:00,
2013-03-09 23:22:00,37.3,36.5,29.80,South,170,0.0,0.0,97,0.00,OVC,,0.30,0.0,WeatherDisplay:10.37,2013-03-10 05:22:00,
2013-03-09 23:27:00,37.3,36.5,29.80,South,170,0.0,0.0,97,0.00,OVC,,0.30,0.0,WeatherDisplay:10.37,2013-03-10 05:27:00,
2013-03-09 23:32:00,37.2,36.4,29.78,South,170,0.0,0.0,97,0.00,OVC,,0.30,0.0,WeatherDisplay:10.37,2013-03-10 05:32:00,
2013-03-09 23:37:00,37.3,36.5,29.78,South,170,0.0,0.0,97,0.00,OVC,,0.30,0.0,WeatherDisplay:10.37,2013-03-10 05:37:00,
2013-03-09 23:42:00,37.3,36.5,29.78,South,170,0.0,0.0,97,0.00,OVC,,0.30,0.0,WeatherDisplay:10.37,2013-03-10 05:42:00,
2013-03-09 23:47:00,37.3,36.5,29.77,South,170,0.0,0.0,97,0.00,OVC,,0.30,0.0,WeatherDisplay:10.37,2013-03-10 05:47:00,
2013-03-09 23:52:00,37.3,36.5,29.77,South,170,0.0,0.0,97,0.00,OVC,,0.30,0.0,WeatherDisplay:10.37,2013-03-10 05:52:00,
2013-03-09 23:57:00,37.2,36.4,29.77,South,170,0.0,0.0,97,0.00,OVC,,0.30,0.0,WeatherDisplay:10.37,2013-03-10 05:57:00,